Location: Harwich
(41.7160°N, 69.9939°W)
Time: 09:56:22
(UTC+02:00)

A-11 Canister half - Pass Details

Date: 01 March 2024
Orbit: 1513 x 1686 km, 47.2° (Epoch: 24 April)

Event Time Altitude Azimuth Distance (km) Brightness Sun altitude
Exits shadow 11:41:26 - 295° (WNW) 4,450 10.8 -6.9°
Reaches altitude 10° 11:43:08 10° 295° (WNW) 3,917 10.5 -6.5°
Maximum altitude 11:53:09 79° 211° (SSW) 1,651 9.2 -4.7°
Drops below altitude 10° 12:02:47 10° 127° (SE) 3,773 12.2 -2.9°
Sets 12:05:48 0° 126° (SE) 4,733 12.8 -2.3°
